sat.trackr.live / text

‹ back to catalog

ONEWEB-0220

NORAD 48232 · 2021-031Y

PAYLOAD ACTIVE UNKNOWN

§ Identity

Operator
Country
UK
Launch date
2021-04-25
Launch site
VOSTO
Launch vehicle
Mass (kg)
RCS (m²)

Purposes: comms

External: N2YO · Heavens-Above · Gunter

§ Orbital elements

Epoch: 2026-05-25T02:36:53.631648Z

Period
109.55 min
Inclination
87.8952°
Eccentricity
0.0001878
Mean motion
13.14501659 rev/d
Perigee alt
1,204.4 km
Apogee alt
1,207.2 km
Semi-major
7,583.9 km
B*
5.6043e-4
RAAN
294.2989°
Arg perigee
105.0194°
Mean anomaly
255.1143°
Rev number
24,537

§ Raw data

ONEWEB-02201 48232U 21031Y   26145.10895407  .00000221  00000+0  56043-3 0  99932 48232  87.8952 294.2989 0001878 105.0194 255.1143 13.14501659245374

JSON: /api/v1/satellites/48232 · /tle

For live sub-satellite position, see the globe view (requires WebGL).

§ Visibility from observer

Set your observer location to see the next 7 days of passes ≥ 10°. The values pass through the URL so the page stays shareable.

No JS? Fill the form by hand. The geolocation button needs JavaScript.